Terminal Aerodrome Forecast
Issued by NWS

Home | Current Version | Previous Version | Text Only | Print | Product List | Glossary On
Versions: 1 2 3 4 5 6 7 8 9 10 11 12 13 14 15 16 17 18 19 20
000
FTUS44 KLIX 180539
TAFMSY
TAF
KMSY 180539Z 1806/1906 11003KT P6SM FEW015 SCT140 OVC200
     FM180900 08003KT 6SM -RA SCT020 OVC070
     FM181300 10004KT 5SM -RA OVC025
      TEMPO 1814/1818 3SM TSRA OVC015CB
     FM181800 20008KT 4SM SHRA BKN020
      TEMPO 1818/1822 VRB15G30KT 1SM TSRA BR BKN015CB
     FM182200 25011KT P6SM BKN040=

USA.gov is the U.S. government's official web portal to all federal, state and local government web resources and services.